Regional Weather Roundup
Issued by NWS

Home | Current Version | Previous Version | Text Only | Print | Product List | Glossary Off
Versions: 1 2 3 4 5 6 7 8 9 10 11 12 13 14 15 16 17 18 19 20 21 22 23 24 25 26 27 28 29 30 31 32 33 34 35 36 37 38 39 40 41 42 43 44 45 46 47 48 49 50

000
ASUS43 KMKX 282259
RWRWI

WISCONSIN REGIONAL WEATHER ROUNDUP
NATIONAL WEATHER SERVICE MILWAUKEE/SULLIVAN WI
500 PM CST SAT FEB 28 2015

NOTE: "FAIR" INDICATES FEW OR NO CLOUDS BELOW 12,000 FEET WITH NO
SIGNIFICANT WEATHER AND/OR OBSTRUCTIONS TO VISIBILITY.

WIZ001-002-006>008-014>016-023>028-010000-
NORTHWEST WISCONSIN

CITY           SKY/WX    TMP DP  RH WIND       PRES   REMARKS
SUPERIOR ARPT  PTCLDY    22   2  42 SW14G21   30.32S WCI  10
ASHLAND        CLEAR     21  -3  35 SW14      30.33F WCI   8
HAYWARD        CLEAR     16  -1  47 S15       30.33F WCI   1
SIREN          PTCLDY    18   3  51 S14G22    30.35F WCI   5
CUMBERLAND     PTCLDY    14   1  57 S12       30.35F WCI   0
RICE LAKE      CLEAR     17   1  49 S15       30.39F WCI   3
CHETEK         CLEAR     16   0  48 S10       30.39F WCI   4
LADYSMITH      CLEAR     18  -2  41 S12       30.39F WCI   5
EAU CLAIRE     NOT AVBL
MENOMONIE      PTCLDY    18  -1  42 S9        30.42F WCI   7
NEW RICHMOND   PTCLDY    17   2  52 SW16      30.38F WCI   2
OSCEOLA        CLOUDY    19   4  53 S15       30.40F WCI   5
$$

WIZ003>005-009-010-017-018-010000-
NORTH CENTRAL WISCONSIN

CITY           SKY/WX    TMP DP  RH WIND       PRES   REMARKS
MANITOWISH WTR CLEAR     19  -2  38 S10G16    30.31F WCI   8
ARBOR VITAE    FAIR      19  -4  35 S17       30.33F WCI   4
WOODRUFF       FAIR      19  -4  35 S17       30.33F WCI   4
RHINELANDER    CLEAR     15  -4  42 S14G20    30.36F WCI   0
EAGLE RIVER    CLEAR     19  -7  30 SW9       30.33F WCI   9
LAND O LAKES   CLEAR     22  -6  29 S8        30.32F WCI  12
PHILLIPS       CLEAR     17  -2  42 S12       30.34F WCI   5
TOMAHAWK       FAIR      17  -3  41 CALM      30.38F
MEDFORD        CLEAR     16  -3  43 S6        30.38F WCI   7
MERRILL        CLEAR     18  -3  39 S7        30.40F WCI   9
$$

WIZ029-030-035-036-043>047-010000-
CENTRAL WISCONSIN

CITY           SKY/WX    TMP DP  RH WIND       PRES   REMARKS
WAUSAU         FAIR      17  -4  39 S12       30.40F WCI   4
MOSINEE        NOT AVBL
MARSHFIELD     CLEAR     17  -3  41 SW9       30.40F WCI   6
STEVENS POINT  CLEAR     17  -5  37 S8        30.44F WCI   7
WAUPACA        CLEAR     23  -5  29 S10       30.48F WCI  12
WAUTOMA        NOT AVBL
WISC RAPIDS    CLEAR     17  -5  37 SW9       30.45F WCI   6
CAMP DOUGLAS   NOT AVBL
$$

WIZ011>013-019>022-031-037>040-048>050-010000-
NORTHEAST WISCONSIN

CITY           SKY/WX    TMP DP  RH WIND       PRES   REMARKS
ANTIGO         CLEAR     15  -1  49 S7        30.39F WCI   6
SHAWANO        CLEAR     22  -1  37 S7        30.48F WCI  13
OCONTO         CLEAR     19   1  46 S8        30.50F WCI   9
STURGEON BAY   CLEAR     19   1  45 SW8       30.51F WCI   9
GREEN BAY      CLEAR     18   1  47 S12       30.50F WCI   5
MANITOWOC      NOT AVBL
APPLETON       PTCLDY    18   0  45 S10       30.49F WCI   6
CLINTONVILLE   CLEAR     21   1  42 S10       30.47F WCI  10
OSHKOSH        CLEAR     17   0  47 S10       30.50F WCI   5
$$

WIZ032>034-041-042-053>061-010000-
SOUTHWEST WISCONSIN

CITY           SKY/WX    TMP DP  RH WIND       PRES   REMARKS
LA CROSSE      PTCLDY    18  -2  41 S12       30.47F WCI   5
SPARTA         CLEAR     19  -2  39 S6        30.47F WCI  11
VIROQUA        CLEAR     16  -3  43 S9G17     30.43F WCI   4
BOSCOBEL       MOCLDY    17   0  47 S6        30.50F WCI   9
PRAIRIE DU CHI CLOUDY    17  -3  41 SE7       30.49F WCI   8
PLATTEVILLE    MOCLDY    15   5  65 E7        30.47F WCI   5
$$

WIZ056-057-062-063-064-067-068-010000-
SOUTH CENTRAL WISCONSIN

CITY           SKY/WX    TMP DP  RH WIND       PRES   REMARKS
REEDSBURG      CLEAR     17  -1  44 S10       30.48F WCI   5
BARABOO/DELLS  CLEAR     16   0  48 S9        30.47F WCI   5
LONE ROCK      NOT AVBL
MINERAL POINT  MOCLDY    16   3  57 SE8       30.46F WCI   5
MADISON        MOCLDY    16   0  49 S12       30.50F WCI   3
MIDDLETON      CLEAR     17  -2  43 S10       30.51F WCI   4
WATERTOWN      CLEAR     16   1  51 S6        30.52F WCI   8
MONROE         CLEAR     14   5  67 SE5       30.49F WCI   6
JANESVILLE     CLEAR     19   0  42 SW6       30.52F WCI  11
$$

WIZ051-052-058>065-066-070>072-010000-
SOUTHEAST WISCONSIN

CITY           SKY/WX    TMP DP  RH WIND       PRES   REMARKS
MILWAUKEE      PTCLDY    18  -1  43 S7        30.54F WCI   9
WAUKESHA       PTCLDY    16  -2  45 SW8       30.53F WCI   5
MILWAUKEE/TIMM CLEAR     19  -2  38 S8        30.54F WCI   9
RACINE         CLEAR     18   5  57 S7        30.55F WCI   9
BURLINGTON     CLEAR     16   1  51 SW5       30.54S WCI   9
KENOSHA        CLEAR     18   6  59 SE9       30.54F WCI   7
FOND DU LAC    CLEAR     18  -1  43 S10       30.50F WCI   6
SHEBOYGAN      CLEAR     18   4  54 SE10      30.51F WCI   6
WEST BEND      CLEAR     19  -4  35 SW6       30.51F WCI  11
JUNEAU         CLEAR     16   1  49 S9        30.52F WCI   5
$$

LSZ147-162-010000-
LAKE SUPERIOR

STATION/POSITION TIME  TEMP    WIND        PRES    WAVE
                       AIR SEA DIR/SP/G            HT/PER
                 (UTC) (F)     (DEG/KT/KT) (MB)    (FT/S)
DEVILS ISLAND    2200   23     210/  9/ 12 1028.5F
PORT WING        2200   23     200/  9/ 16 1027.4F
SAXON HARBOR     2200   24     220/ 11/ 17 1027.8F
$$

LMZ867-665-643>646-010000-
LAKE MICHIGAN

STATION/POSITION TIME  TEMP    WIND        PRES    WAVE
                       AIR SEA DIR/SP/G            HT/PER
                 (UTC) (F)     (DEG/KT/KT) (MB)    (FT/S)
NORTHPORT PIER   2200   21     160/  6/ 14 1032.8F
SISTER BAY       2213   27     280/ 10/ 10   N/A
KEWAUNEE LAKESHO 2212          180/ 15/ 18   N/A
SHEBOYGAN LAKESH 2200   18     170/ 15/ 17 1036.1F
PORT WASHINGTON  2240   21     170/ 10/ 16 1034.5F
MILWAUKEE LAKESH 2200   19     180/  7/ 10   N/A
KENOSHA   LAKESH 2200   20     160/ 10/ 11 1034.9F
$$

TC  - TEMPERATURE IN CELSIUS
VSB - VISIBILITY IN STATUTE MILES
WCI - WIND CHILL INDEX
HX  - HEAT INDEX




USA.gov is the U.S. government's official web portal to all federal, state and local government web resources and services.